TimeCDT,TemperatureF,Dew PointF,Humidity,Sea Level PressureIn,VisibilityMPH,Wind Direction,Wind SpeedMPH,Gust SpeedMPH,PrecipitationIn,Events,Conditions,WindDirDegrees,DateUTC
12:53 AM,64.0,57.9,80,30.12,10.0,SE,4.6,-,N/A,,Mostly Cloudy,140,2013-08-18 05:53:00
1:53 AM,64.0,57.9,80,30.11,10.0,SE,5.8,-,N/A,,Clear,130,2013-08-18 06:53:00
2:53 AM,62.1,57.9,86,30.10,10.0,South,4.6,-,N/A,,Overcast,170,2013-08-18 07:53:00
3:53 AM,62.1,57.9,86,30.10,10.0,SE,4.6,-,N/A,,Mostly Cloudy,140,2013-08-18 08:53:00
4:53 AM,61.0,57.9,90,30.10,9.0,South,3.5,-,N/A,,Mostly Cloudy,170,2013-08-18 09:53:00
5:53 AM,63.0,57.0,81,30.10,10.0,ESE,3.5,-,N/A,,Overcast,120,2013-08-18 10:53:00
6:53 AM,62.1,57.9,86,30.12,10.0,SE,4.6,-,N/A,,Mostly Cloudy,140,2013-08-18 11:53:00
7:53 AM,64.0,57.9,80,30.13,10.0,SSE,5.8,-,N/A,,Scattered Clouds,150,2013-08-18 12:53:00
8:53 AM,68.0,59.0,73,30.13,10.0,SSE,8.1,-,N/A,,Partly Cloudy,160,2013-08-18 13:53:00
9:53 AM,72.0,61.0,68,30.13,10.0,SSE,9.2,-,N/A,,Partly Cloudy,150,2013-08-18 14:53:00
10:53 AM,75.9,61.0,60,30.12,10.0,SE,13.8,-,N/A,,Clear,140,2013-08-18 15:53:00
11:53 AM,77.0,60.1,56,30.12,10.0,SSE,12.7,-,N/A,,Mostly Cloudy,150,2013-08-18 16:53:00
12:53 PM,80.1,61.0,52,30.10,10.0,SSE,9.2,-,N/A,,Scattered Clouds,150,2013-08-18 17:53:00
1:53 PM,81.0,61.0,50,30.08,10.0,SSE,12.7,18.4,N/A,,Clear,160,2013-08-18 18:53:00
2:53 PM,82.9,63.0,51,30.06,10.0,South,8.1,-,N/A,,Clear,180,2013-08-18 19:53:00
3:53 PM,82.9,61.0,47,30.04,10.0,SE,10.4,-,N/A,,Clear,140,2013-08-18 20:53:00
4:53 PM,82.9,63.0,51,30.03,10.0,SSE,9.2,19.6,N/A,,Mostly Cloudy,150,2013-08-18 21:53:00
5:53 PM,82.9,62.1,49,30.01,10.0,SSE,10.4,-,N/A,,Clear,150,2013-08-18 22:53:00
6:53 PM,81.0,63.0,54,30.01,10.0,SSE,11.5,-,N/A,,Mostly Cloudy,150,2013-08-18 23:53:00
7:53 PM,78.1,64.0,62,30.01,10.0,SE,8.1,-,N/A,,Clear,140,2013-08-19 00:53:00
8:53 PM,72.0,64.0,76,30.04,10.0,SE,4.6,-,N/A,,Clear,140,2013-08-19 01:53:00
9:53 PM,70.0,64.0,81,30.06,10.0,SSE,5.8,-,N/A,,Clear,150,2013-08-19 02:53:00
10:53 PM,70.0,63.0,78,30.07,10.0,SSE,5.8,-,N/A,,Clear,150,2013-08-19 03:53:00
11:53 PM,68.0,63.0,84,30.07,10.0,SSE,5.8,-,N/A,,Clear,150,2013-08-19 04:53:00